[[{"header":{"parameterUnit":"m.s-1","parameterCategory":1,"la1":30.2991,"la2":30.254,"lo1":-89.0895,"lo2":-89.0444,"dy":0.0017,"dx":0.0017,"nx":28,"ny":28,"refTime":"2023-10-23T09:00:00:Z","depth":0,"parameterNumber":2,"parameterNumberName":"U-component_of_WINDS"},"data":[0,0,0,0,0,0,0,0,0,0,0,0,0,0,0,0,0,0,0,0,0,0,0,0,0,0,0,0,0,0,0,0,0,0,0,0,0,0,0,0,0,0,0,0,0,0,0,0,0,0,0,0,0,0,0,0,0,0,-1.594,-1.594,0,-1.5992,-1.5992,-1.5993,-1.5947,-1.5945,-1.5944,-1.5942,-1.5995,-1.5998,-1.6001,0,0,0,0,0,0,0,0,0,0,0,0,0,-1.5801,-1.5804,-1.594,-1.594,-1.5941,-1.5992,-1.5992,-1.5993,-1.5948,-1.5945,-1.5943,-1.5941,-1.5994,-1.5997,-1.6001,0,0,0,0,0,0,0,0,0,0,0,0,0,-1.5858,-1.5805,-1.594,-1.5925,-1.5924,-1.5992,-1.5992,-1.5993,-1.5948,-1.5945,-1.5943,-1.594,-1.5992,-1.5997,-1.6002,-1.6087,0,0,-1.6016,-1.6018,0,0,0,0,0,0,0,0,-1.5855,-1.5863,-1.5926,-1.5926,-1.5925,-1.596,-1.5963,-1.6025,-1.5949,-1.5939,-1.5942,-1.5939,-1.5985,-1.5991,-1.6006,-1.609,-1.6092,-1.6016,-1.6019,-1.6021,-1.6023,0,0,0,0,0,0,0,-1.5851,-1.5861,-1.596,-1.5927,-1.5926,-1.5915,-1.592,-1.5974,-1.5977,-1.594,-1.5936,-1.5943,-1.5985,-1.6002,-1.6007,-1.6093,-1.6016,-1.6021,-1.6023,-1.6025,-1.6249,-1.6252,0,0,0,0,0,0,-1.5849,-1.5858,-1.5959,-1.5962,-1.5882,-1.592,-1.5925,-1.5952,-1.5977,-1.5978,-1.5945,-1.5941,-1.5995,-1.6002,-1.6009,-1.6111,-1.6021,-1.6026,-1.6029,-1.6246,-1.625,-1.6253,0,0,0,0,0,0,-1.5846,-1.5858,-1.5957,-1.5909,-1.5921,-1.5925,-1.5955,-1.5954,-1.5972,-1.5981,-1.5981,-1.5963,-1.5993,-1.6002,-1.6068,-1.6112,-1.6028,-1.6032,-1.6242,-1.6247,-1.6251,-1.6316,0,0,0,0,0,0,-1.5842,-1.5857,-1.589,-1.591,-1.5923,-1.6015,-1.5958,-1.5957,-1.598,-1.5974,-1.5997,-1.5999,-1.5992,-1.6061,-1.6073,-1.6117,-1.6036,-1.6238,-1.6244,-1.625,-1.631,-1.6322,-1.6333,0,0,0,0,0,-1.5837,-1.5906,-1.5892,-1.5904,-1.5964,-1.6018,-1.6025,-1.6016,-1.5984,-1.6016,-1.6023,-1.5998,-1.6106,-1.6068,-1.6081,-1.6128,-1.6235,-1.6243,-1.6249,-1.6305,-1.632,-1.6332,0,0,0,0,0,0,-1.589,-1.5908,-1.5893,-1.597,-1.5993,-1.601,-1.6051,-1.6033,-1.6065,-1.6058,-1.6046,-1.6051,-1.6121,-1.6131,-1.6089,-1.6212,-1.6165,-1.6175,-1.6203,-1.6217,-1.6229,-1.6225,-1.604,0,0,0,0,0,-1.5911,-1.5953,-1.5966,-1.6033,-1.6045,-1.6046,-1.6069,-1.6061,-1.6084,-1.6093,-1.6104,-1.6127,-1.6166,-1.6192,-1.6229,-1.6311,-1.6315,-1.6349,-1.6361,-1.637,-1.6379,-1.6423,-1.6439,-1.6276,-1.6276,-1.6276,0,0,-1.5954,-1.5969,-1.5996,-1.6044,-1.6061,-1.6105,-1.6055,-1.6103,-1.6136,-1.61,-1.6163,-1.6172,-1.6197,-1.6272,-1.6305,-1.6282,-1.6425,-1.6379,-1.6386,-1.639,-1.6432,-1.6448,-1.6461,-1.6281,-1.628,-1.6279,0,0,-1.6055,-1.6071,-1.6128,-1.6146,-1.6172,-1.6172,-1.6186,-1.6207,-1.6211,-1.6274,-1.6249,-1.6287,-1.6355,-1.6374,-1.6393,-1.6502,-1.648,-1.6514,-1.6574,-1.6618,-1.663,-1.6642,-1.6681,-1.6695,-1.6523,-1.6523,-1.6523,0,-1.6105,-1.6171,-1.616,-1.6211,-1.6233,-1.6203,-1.6261,-1.6279,-1.6316,-1.6332,-1.6305,-1.639,-1.6405,-1.6484,-1.651,-1.6526,-1.6542,-1.6511,-1.663,-1.6641,-1.6651,-1.6689,-1.6703,-1.6527,-1.6526,-1.6526,-1.6525,0,-1.6232,-1.6278,-1.6321,-1.6358,-1.6384,-1.6439,-1.6436,-1.6465,-1.6454,-1.6457,-1.6522,-1.6538,-1.6578,-1.6596,-1.6585,-1.6674,-1.6659,-1.6631,-1.6584,-1.6671,-1.6706,-1.672,-1.6532,-1.6531,-1.653,-1.6529,0,0,-1.6368,-1.6398,-1.6414,-1.6431,-1.6458,-1.6493,-1.6546,-1.6585,-1.661,-1.6636,-1.668,-1.6739,-1.6713,-1.6735,-1.6726,-1.6764,-1.6851,-1.6732,-1.6733,-1.6754,-1.6949,-1.697,-1.6987,-1.6836,-1.6839,-1.6841,-1.6947,0,-1.647,-1.6563,-1.6555,-1.6643,-1.6685,-1.6658,-1.6704,-1.6726,-1.673,-1.6767,-1.6771,-1.6813,-1.6776,-1.6789,-1.6826,-1.6832,-1.689,-1.6824,-1.6878,-1.688,-1.6873,-1.7005,-1.7027,-1.7126,-1.6961,-1.6963,-1.6965,0,-1.6602,-1.6634,-1.6726,-1.6747,-1.6764,-1.6806,-1.6842,-1.6877,-1.6901,-1.6901,-1.6926,-1.6911,-1.6964,-1.6916,-1.699,-1.6946,-1.6967,-1.6973,-1.6977,-1.6982,-1.6928,-1.7014,-1.7158,-1.7173,-1.6986,-1.6984,-1.6983,0,-1.6693,-1.6758,-1.6822,-1.6837,-1.6863,-1.6893,-1.6905,-1.6926,-1.695,-1.6981,-1.6997,-1.7034,-1.7054,-1.7083,-1.7078,-1.7043,-1.7153,-1.7104,-1.7155,-1.7156,-1.718,-1.7178,-1.733,-1.7193,-1.7193,-1.7193,-1.7193,0,-1.6808,-1.6866,-1.6863,-1.6902,-1.6966,-1.6957,-1.702,-1.7028,-1.7048,-1.7088,-1.7066,-1.7105,-1.7096,-1.7134,-1.7131,-1.7193,-1.7202,-1.7204,-1.7202,-1.7206,-1.7206,-1.722,-1.7213,-1.7197,-1.7196,-1.7195,-1.7194,0,-1.692,-1.6921,-1.6988,-1.7008,-1.7014,-1.706,-1.7076,-1.7114,-1.7116,-1.7168,-1.7179,-1.7184,-1.7228,-1.7226,-1.7275,-1.7273,-1.7349,-1.734,-1.7342,-1.734,-1.7391,-1.7386,-1.7556,-1.7578,-1.7428,-1.7429,-1.743,0,-1.6994,-1.7038,-1.7062,-1.7088,-1.7102,-1.7144,-1.7168,-1.7161,-1.7188,-1.7218,-1.7252,-1.7294,-1.7327,-1.7398,-1.7406,-1.7444,-1.7435,-1.7492,-1.7441,-1.7443,-1.7436,-1.7434,-1.7438,-1.7502,-1.7504,-1.7505,-1.7506,0,-1.7125,-1.7124,-1.716,-1.7197,-1.7228,-1.7256,-1.7283,-1.7305,-1.73,-1.7331,-1.7376,-1.7402,-1.7453,-1.7495,-1.7531,-1.7543,-1.7525,-1.7523,-1.7537,-1.7541,-1.754,-1.7541,-1.7369,-1.7519,-1.7518,-1.7517,-1.7516,-1.7516,-1.7221,-1.7258,-1.7282,-1.7323,-1.7342,-1.7368,-1.7404,-1.7411,-1.7449,-1.749,-1.7483,-1.7533,-1.7556,-1.7604,-1.7619,-1.7658,-1.7638,-1.7658,-1.7663,-1.7668,-1.7674,-1.7534,-1.7665,-1.7665,-1.7664,-1.7664,-1.7664,0,-1.7351,-1.7365,-1.7403,-1.7441,-1.7474,-1.7454,-1.7482,-1.7511,-1.7555,-1.7579,-1.7612,-1.7664,-1.7704,-1.7716,-1.7755,-1.7784,-1.7776,-1.7795,-1.7792,-1.7796,-1.769,-1.7674,-1.78,-1.78,-1.78,-1.78,-1.78,-1.78,-1.7423,-1.7486,-1.7487,-1.7559,-1.7572,-1.7622,-1.764,-1.7663,-1.7682,-1.7741,-1.7775,-1.7782,-1.78,-1.7841,-1.7877,-1.7879,-1.7895,-1.7917,-1.7915,-1.7817,-1.7803,-1.779,-1.7775,-1.792,-1.792,-1.8018,-1.8018,-1.8019]},{"header":{"parameterUnit":"m.s-1","parameterCategory":1,"la1":30.2991,"la2":30.254,"lo1":-89.0895,"lo2":-89.0444,"dy":0.0017,"dx":0.0017,"nx":28,"ny":28,"refTime":"2023-10-23T09:00:00:Z","depth":0,"parameterNumber":3,"parameterNumberName":"V-component_of_WINDS"},"data":[0,0,0,0,0,0,0,0,0,0,0,0,0,0,0,0,0,0,0,0,0,0,0,0,0,0,0,0,0,0,0,0,0,0,0,0,0,0,0,0,0,0,0,0,0,0,0,0,0,0,0,0,0,0,0,0,0,0,-1.6198,-1.6198,0,-1.6254,-1.6255,-1.6255,-1.6272,-1.6272,-1.6271,-1.6271,-1.6326,-1.6328,-1.633,0,0,0,0,0,0,0,0,0,0,0,0,0,-1.6101,-1.6103,-1.6198,-1.6198,-1.6199,-1.6254,-1.6255,-1.6256,-1.6272,-1.6272,-1.6271,-1.6271,-1.6326,-1.6328,-1.633,0,0,0,0,0,0,0,0,0,0,0,0,0,-1.6149,-1.6103,-1.6197,-1.6214,-1.6216,-1.6254,-1.6255,-1.6256,-1.6272,-1.6272,-1.6271,-1.6271,-1.6325,-1.6328,-1.633,-1.6355,0,0,-1.6338,-1.6339,0,0,0,0,0,0,0,0,-1.6146,-1.6152,-1.6211,-1.6213,-1.6215,-1.6256,-1.6241,-1.6289,-1.6272,-1.6251,-1.6271,-1.6271,-1.6303,-1.6307,-1.6319,-1.6358,-1.636,-1.6339,-1.634,-1.6341,-1.6342,0,0,0,0,0,0,0,-1.6143,-1.615,-1.622,-1.6212,-1.6214,-1.6218,-1.6224,-1.625,-1.6279,-1.6253,-1.6254,-1.626,-1.6304,-1.6316,-1.632,-1.6361,-1.6339,-1.6341,-1.6342,-1.6343,-1.6423,-1.6423,0,0,0,0,0,0,-1.6137,-1.6147,-1.6218,-1.6222,-1.6179,-1.622,-1.6227,-1.6243,-1.6278,-1.6283,-1.6261,-1.6261,-1.6312,-1.6317,-1.6322,-1.6354,-1.6341,-1.6344,-1.6345,-1.6422,-1.6423,-1.6424,0,0,0,0,0,0,-1.6135,-1.6143,-1.6216,-1.6185,-1.6194,-1.6222,-1.624,-1.6244,-1.6257,-1.6285,-1.6289,-1.6268,-1.6312,-1.6319,-1.6347,-1.6356,-1.6345,-1.6347,-1.6422,-1.6423,-1.6423,-1.6417,0,0,0,0,0,0,-1.6132,-1.6142,-1.6153,-1.6185,-1.6196,-1.624,-1.6241,-1.6246,-1.6261,-1.6262,-1.6293,-1.6298,-1.6312,-1.6343,-1.635,-1.6359,-1.6349,-1.6421,-1.6422,-1.6423,-1.6416,-1.6417,-1.6418,0,0,0,0,0,-1.6128,-1.6148,-1.6153,-1.6162,-1.621,-1.6241,-1.6247,-1.6264,-1.6262,-1.6272,-1.629,-1.6297,-1.6354,-1.6346,-1.6353,-1.6364,-1.6421,-1.6422,-1.6423,-1.6416,-1.6417,-1.6418,0,0,0,0,0,0,-1.6115,-1.6153,-1.6159,-1.6189,-1.6212,-1.6244,-1.6257,-1.6265,-1.6288,-1.6287,-1.6307,-1.6314,-1.6341,-1.6355,-1.6346,-1.639,-1.6387,-1.639,-1.6379,-1.6381,-1.6381,-1.6377,-1.6352,0,0,0,0,0,-1.6116,-1.6139,-1.617,-1.6194,-1.6205,-1.6229,-1.6243,-1.6255,-1.6279,-1.6288,-1.6308,-1.633,-1.6353,-1.6368,-1.639,-1.6418,-1.6425,-1.6429,-1.643,-1.6431,-1.6433,-1.6448,-1.645,-1.6428,-1.6427,-1.6427,0,0,-1.6118,-1.6141,-1.6154,-1.6192,-1.6211,-1.6234,-1.6237,-1.6261,-1.6278,-1.6291,-1.632,-1.6335,-1.6361,-1.6389,-1.6402,-1.6402,-1.6441,-1.6432,-1.6433,-1.6434,-1.645,-1.6452,-1.6454,-1.6428,-1.6428,-1.6428,0,0,-1.6132,-1.6152,-1.6175,-1.6193,-1.6222,-1.6238,-1.6243,-1.6274,-1.6285,-1.6314,-1.6324,-1.6344,-1.6383,-1.6401,-1.6416,-1.6437,-1.6443,-1.6444,-1.6448,-1.6463,-1.6464,-1.6466,-1.6473,-1.6476,-1.6446,-1.6446,-1.6446,0,-1.613,-1.6166,-1.6185,-1.6208,-1.6224,-1.6239,-1.6261,-1.6278,-1.6312,-1.6322,-1.6322,-1.6371,-1.639,-1.6422,-1.6427,-1.6439,-1.6445,-1.644,-1.6463,-1.6465,-1.6467,-1.6473,-1.6476,-1.6445,-1.6445,-1.6445,-1.6445,0,-1.6162,-1.6186,-1.62,-1.6234,-1.6252,-1.6274,-1.6296,-1.6312,-1.6321,-1.6337,-1.6366,-1.6388,-1.6416,-1.6424,-1.6434,-1.6458,-1.6457,-1.6459,-1.6457,-1.6468,-1.6475,-1.6478,-1.6445,-1.6445,-1.6445,-1.6445,0,0,-1.6169,-1.6213,-1.6218,-1.6234,-1.6266,-1.6285,-1.6308,-1.6336,-1.6348,-1.6371,-1.6391,-1.6424,-1.6426,-1.6442,-1.6454,-1.6467,-1.6482,-1.6468,-1.6469,-1.6469,-1.6509,-1.6507,-1.651,-1.6486,-1.6487,-1.6487,-1.6507,0,-1.6187,-1.623,-1.6248,-1.6282,-1.6304,-1.6318,-1.6338,-1.636,-1.6375,-1.6395,-1.6411,-1.6434,-1.6436,-1.6446,-1.646,-1.6477,-1.649,-1.6476,-1.6503,-1.6504,-1.6496,-1.6513,-1.6511,-1.6528,-1.651,-1.651,-1.651,0,-1.6215,-1.6239,-1.6275,-1.6305,-1.6315,-1.6333,-1.6359,-1.6379,-1.6404,-1.6414,-1.6432,-1.6443,-1.6467,-1.6463,-1.6496,-1.6486,-1.6498,-1.6508,-1.6509,-1.6512,-1.6508,-1.6516,-1.6534,-1.6537,-1.6515,-1.6515,-1.6514,0,-1.6216,-1.6257,-1.6285,-1.6297,-1.6333,-1.6345,-1.636,-1.6385,-1.64,-1.6423,-1.6433,-1.6458,-1.6472,-1.649,-1.6507,-1.6504,-1.6538,-1.6536,-1.6546,-1.6546,-1.6553,-1.6552,-1.6573,-1.6561,-1.6561,-1.6561,-1.6561,0,-1.6234,-1.6256,-1.6286,-1.6302,-1.6327,-1.6346,-1.637,-1.6386,-1.6407,-1.6427,-1.644,-1.6457,-1.6479,-1.6499,-1.6513,-1.6537,-1.6543,-1.6551,-1.6555,-1.655,-1.6549,-1.6558,-1.6557,-1.6562,-1.6562,-1.6562,-1.6561,0,-1.624,-1.6261,-1.6291,-1.6323,-1.6331,-1.6347,-1.6374,-1.639,-1.6406,-1.643,-1.6437,-1.6461,-1.6486,-1.6505,-1.6536,-1.6545,-1.6571,-1.6575,-1.6563,-1.6565,-1.6574,-1.6572,-1.66,-1.6605,-1.6591,-1.6591,-1.6591,0,-1.625,-1.6267,-1.63,-1.6315,-1.633,-1.6353,-1.6369,-1.6389,-1.6405,-1.6434,-1.6447,-1.6472,-1.6494,-1.6532,-1.6552,-1.6576,-1.658,-1.6588,-1.6584,-1.6578,-1.658,-1.6578,-1.658,-1.6589,-1.6589,-1.6589,-1.6589,0,-1.6266,-1.6275,-1.6298,-1.6325,-1.6344,-1.6366,-1.6387,-1.6398,-1.6422,-1.6439,-1.6465,-1.6481,-1.6514,-1.6539,-1.6565,-1.658,-1.6588,-1.659,-1.6594,-1.6589,-1.6581,-1.6585,-1.6564,-1.6589,-1.6589,-1.6589,-1.6589,-1.6589,-1.6273,-1.6289,-1.6315,-1.634,-1.6359,-1.6379,-1.6396,-1.6414,-1.6436,-1.6465,-1.6475,-1.6501,-1.6525,-1.6561,-1.6576,-1.6596,-1.6597,-1.6602,-1.6603,-1.6604,-1.6603,-1.6579,-1.6601,-1.6601,-1.6601,-1.6601,-1.6601,0,-1.6289,-1.6307,-1.633,-1.6361,-1.638,-1.6387,-1.6412,-1.6428,-1.6451,-1.6473,-1.6494,-1.6523,-1.6547,-1.6569,-1.6594,-1.6606,-1.661,-1.6612,-1.6611,-1.6614,-1.6602,-1.6596,-1.6608,-1.6608,-1.6608,-1.6608,-1.6608,-1.6608,-1.63,-1.6327,-1.634,-1.6376,-1.6393,-1.6419,-1.6433,-1.6451,-1.6469,-1.6501,-1.6521,-1.6536,-1.6558,-1.6584,-1.6607,-1.6612,-1.6621,-1.6621,-1.6628,-1.6616,-1.6615,-1.6614,-1.6609,-1.6623,-1.6623,-1.6638,-1.6638,-1.6639]}]]